Location: *
(53.9002°N, 27.5624°E)
Time: 04:58:15
(UTC+00:00)

COSMO-SKYMED 1 - Pass Details

Date: 12 November 2019
Orbit: 621 x 623 km, 97.9° (Epoch: 13 December)

Event Time Altitude Azimuth Distance (km) Brightness Sun altitude
Exits shadow 15:23:59 - 30° (NNE) 2,442 5.2 -10.0°
Reaches altitude 10° 15:25:18 10° 39° (NE) 2,006 4.7 -10.1°
Maximum altitude 15:28:44 22° 91° (E) 1,360 3.7 -10.6°
Drops below altitude 10° 15:32:09 10° 143° (SE) 1,992 4.9 -11.1°
Sets 15:34:44 0° 159° (SSE) 2,892 5.9 -11.5°
